• In Netherlands
  • List of Countries
  • For 7 days
  • Water Temperature
  • Satellite Maps
  • Weather Map
  • Weather Widgets
  • user-avatar
    Login

    Hourly Weather Asadabad

    Today, 27 July, Thursday

    Time Temperature Precipitation Wind Pressure Humidity
    00:00 +27°C° 1.5 mm 1 mps 654 mmHg 74%
    01:00 +27°C° 1.5 mm 1 mps 654 mmHg 75%
    02:00 +26°C° 1.5 mm 1 mps 654 mmHg 76%
    03:00 +26°C° 1.3 mm 1 mps 654 mmHg 77%
    04:00 +26°C° 1.3 mm 1 mps 654 mmHg 78%
    05:00 +25°C° 1.3 mm 1 mps 654 mmHg 78%
    06:00 +26°C° 0.3 mm 1 mps 654 mmHg 73%
    07:00 +27°C° 0.3 mm 1 mps 655 mmHg 68%
    08:00 +28°C° 0.3 mm 1 mps 655 mmHg 62%
    09:00 +30°C° 0.2 mm 2 mps 655 mmHg 59%
    10:00 +31°C° 0.2 mm 2 mps 655 mmHg 55%
    11:00 +32°C° 0.2 mm 2 mps 656 mmHg 52%
    12:00 +32°C° 0 mm 2 mps 655 mmHg 50%
    13:00 +34°C° 0 mm 3 mps 655 mmHg 49%
    14:00 +35°C° 0 mm 3 mps 655 mmHg 47%
    15:00 +35°C° 0.1 mm 3 mps 655 mmHg 47%
    16:00 +35°C° 0.1 mm 3 mps 654 mmHg 46%
    17:00 +35°C° 0.1 mm 3 mps 654 mmHg 46%
    18:00 +34°C° 0.2 mm 2 mps 654 mmHg 50%
    19:00 +32°C° 0.2 mm 2 mps 654 mmHg 55%
    20:00 +30°C° 0.2 mm 2 mps 654 mmHg 59%
    21:00 +30°C° 0.3 mm 1 mps 654 mmHg 61%
    22:00 +29°C° 0.3 mm 1 mps 655 mmHg 63%
    23:00 +28°C° 0.3 mm 1 mps 655 mmHg 65%

    Tomorrow, 28 July, Friday

    Time Temperature Precipitation Wind Pressure Humidity
    00:00 +28°C° 0.4 mm 1 mps 655 mmHg 66%
    01:00 +28°C° 0.4 mm 1 mps 655 mmHg 68%
    02:00 +27°C° 0.4 mm 1 mps 655 mmHg 69%
    03:00 +27°C° 0.6 mm 1 mps 655 mmHg 69%
    04:00 +27°C° 0.6 mm 1 mps 655 mmHg 69%
    05:00 +24°C° 0.6 mm 0 mps 655 mmHg 70%
    06:00 +27°C° 0.1 mm 1 mps 655 mmHg 64%
    07:00 +29°C° 0.1 mm 1 mps 656 mmHg 59%
    08:00 +30°C° 0.1 mm 1 mps 656 mmHg 54%
    09:00 +31°C° 0 mm 2 mps 656 mmHg 51%
    10:00 +32°C° 0 mm 2 mps 656 mmHg 48%
    11:00 +34°C° 0 mm 2 mps 657 mmHg 45%
    12:00 +35°C° 0 mm 3 mps 656 mmHg 43%
    13:00 +36°C° 0 mm 3 mps 656 mmHg 42%
    14:00 +37°C° 0 mm 3 mps 656 mmHg 40%
    15:00 +36°C° 0.1 mm 3 mps 656 mmHg 40%
    16:00 +36°C° 0.1 mm 3 mps 656 mmHg 40%
    17:00 +36°C° 0.1 mm 3 mps 656 mmHg 40%
    18:00 +35°C° 0.2 mm 3 mps 656 mmHg 45%
    19:00 +34°C° 0.2 mm 2 mps 656 mmHg 50%
    20:00 +31°C° 0.2 mm 2 mps 656 mmHg 55%
    21:00 +30°C° 0.4 mm 1 mps 656 mmHg 58%
    22:00 +30°C° 0.4 mm 1 mps 656 mmHg 61%
    23:00 +29°C° 0.4 mm 1 mps 656 mmHg 64%

    Day after tomorrow, 29 July, Saturday

    Time Temperature Precipitation Wind Pressure Humidity
    00:00 +29°C° 1 mm 1 mps 656 mmHg 66%
    01:00 +28°C° 1 mm 1 mps 656 mmHg 68%
    02:00 +27°C° 1 mm 1 mps 656 mmHg 70%
    03:00 +27°C° 1.1 mm 1 mps 655 mmHg 71%
    04:00 +27°C° 1.1 mm 1 mps 655 mmHg 73%
    05:00 +26°C° 1.1 mm 1 mps 655 mmHg 74%
    06:00 +27°C° 0.2 mm 1 mps 656 mmHg 69%
    07:00 +28°C° 0.2 mm 1 mps 656 mmHg 65%
    08:00 +29°C° 0.2 mm 1 mps 656 mmHg 60%
    09:00 +31°C° 0 mm 2 mps 656 mmHg 56%
    10:00 +32°C° 0 mm 2 mps 656 mmHg 52%
    11:00 +34°C° 0 mm 3 mps 656 mmHg 48%
    12:00 +35°C° 0 mm 3 mps 656 mmHg 47%
    13:00 +35°C° 0 mm 3 mps 656 mmHg 47%
    14:00 +36°C° 0 mm 3 mps 655 mmHg 46%
    15:00 +36°C° 0.1 mm 3 mps 655 mmHg 47%
    16:00 +35°C° 0.1 mm 3 mps 655 mmHg 47%
    17:00 +35°C° 0.1 mm 3 mps 655 mmHg 47%
    18:00 +34°C° 0 mm 3 mps 655 mmHg 52%
    19:00 +32°C° 0 mm 2 mps 655 mmHg 57%
    20:00 +31°C° 0 mm 2 mps 655 mmHg 61%
    21:00 +30°C° 0.2 mm 2 mps 655 mmHg 64%
    22:00 +30°C° 0.2 mm 1 mps 655 mmHg 66%
    23:00 +29°C° 0.2 mm 1 mps 655 mmHg 68%

    30 July, Sunday

    Time Temperature Precipitation Wind Pressure Humidity
    00:00 +29°C° 0.9 mm 1 mps 655 mmHg 70%
    01:00 +28°C° 0.9 mm 1 mps 654 mmHg 72%
    02:00 +28°C° 0.9 mm 1 mps 654 mmHg 74%
    03:00 +27°C° 0.3 mm 1 mps 654 mmHg 75%
    04:00 +27°C° 0.3 mm 1 mps 654 mmHg 75%
    05:00 +26°C° 0.3 mm 1 mps 654 mmHg 76%
    06:00 +28°C° 0 mm 1 mps 654 mmHg 71%
    07:00 +29°C° 0 mm 1 mps 654 mmHg 65%
    08:00 +30°C° 0 mm 2 mps 655 mmHg 60%
    09:00 +31°C° 0 mm 2 mps 655 mmHg 56%
    10:00 +32°C° 0 mm 2 mps 655 mmHg 52%
    11:00 +35°C° 0 mm 2 mps 655 mmHg 48%
    12:00 +35°C° 0 mm 3 mps 655 mmHg 45%
    13:00 +36°C° 0 mm 3 mps 654 mmHg 43%
    14:00 +37°C° 0 mm 3 mps 654 mmHg 41%
    15:00 +37°C° 0 mm 3 mps 654 mmHg 41%
    16:00 +37°C° 0 mm 3 mps 654 mmHg 41%
    17:00 +37°C° 0 mm 4 mps 654 mmHg 40%
    18:00 +35°C° 0 mm 3 mps 654 mmHg 46%
    19:00 +34°C° 0 mm 3 mps 654 mmHg 51%
    20:00 +31°C° 0 mm 2 mps 654 mmHg 56%
    21:00 +30°C° 1.1 mm 2 mps 654 mmHg 61%
    22:00 +29°C° 1.1 mm 2 mps 655 mmHg 65%
    23:00 +29°C° 1.1 mm 2 mps 655 mmHg 70%

    31 July, Monday

    Time Temperature Precipitation Wind Pressure Humidity
    00:00 +28°C° 0.8 mm 2 mps 654 mmHg 73%
    01:00 +27°C° 0.8 mm 2 mps 654 mmHg 77%
    02:00 +26°C° 0.8 mm 2 mps 654 mmHg 80%
    03:00 +26°C° 0.3 mm 2 mps 654 mmHg 80%
    04:00 +26°C° 0.3 mm 2 mps 654 mmHg 80%
    05:00 +25°C° 0.3 mm 1 mps 654 mmHg 79%
    06:00 +26°C° 0.2 mm 2 mps 654 mmHg 76%
    07:00 +27°C° 0.2 mm 2 mps 654 mmHg 72%
    08:00 +28°C° 0.2 mm 2 mps 655 mmHg 69%
    09:00 +29°C° 0.1 mm 2 mps 655 mmHg 66%
    10:00 +30°C° 0.1 mm 2 mps 655 mmHg 63%
    11:00 +31°C° 0.1 mm 3 mps 655 mmHg 60%
    12:00 +31°C° 0.1 mm 3 mps 655 mmHg 59%
    13:00 +33°C° 0.1 mm 3 mps 655 mmHg 58%
    14:00 +33°C° 0.1 mm 3 mps 654 mmHg 57%
    15:00 +33°C° 0.1 mm 3 mps 654 mmHg 59%
    16:00 +33°C° 0.1 mm 3 mps 654 mmHg 61%
    17:00 +33°C° 0.1 mm 3 mps 654 mmHg 63%
    18:00 +31°C° 0.6 mm 3 mps 654 mmHg 67%
    19:00 +30°C° 0.6 mm 3 mps 655 mmHg 71%
    20:00 +29°C° 0.6 mm 2 mps 655 mmHg 75%
    21:00 +28°C° 1.5 mm 2 mps 655 mmHg 76%
    22:00 +28°C° 1.5 mm 1 mps 655 mmHg 77%
    23:00 +27°C° 1.5 mm 1 mps 655 mmHg 78%

    1 August, Tuesday

    Time Temperature Precipitation Wind Pressure Humidity
    00:00 +27°C° 1.3 mm 1 mps 655 mmHg 79%
    01:00 +27°C° 1.3 mm 1 mps 655 mmHg 79%
    02:00 +26°C° 1.3 mm 1 mps 654 mmHg 80%
    03:00 +26°C° 0.5 mm 1 mps 654 mmHg 80%
    04:00 +26°C° 0.5 mm 1 mps 654 mmHg 80%
    05:00 +25°C° 0.5 mm 1 mps 654 mmHg 80%
    06:00 +26°C° 0.3 mm 1 mps 654 mmHg 74%
    07:00 +27°C° 0.3 mm 1 mps 655 mmHg 68%
    08:00 +29°C° 0.3 mm 1 mps 655 mmHg 63%
    09:00 +30°C° 0.1 mm 2 mps 655 mmHg 59%
    10:00 +31°C° 0.1 mm 2 mps 655 mmHg 54%
    11:00 +32°C° 0.1 mm 2 mps 655 mmHg 50%
    12:00 +34°C° 0 mm 3 mps 655 mmHg 48%
    13:00 +35°C° 0 mm 3 mps 654 mmHg 46%
    14:00 +35°C° 0 mm 3 mps 654 mmHg 43%
    15:00 +35°C° 0.1 mm 3 mps 654 mmHg 43%
    16:00 +35°C° 0.1 mm 3 mps 654 mmHg 43%
    17:00 +35°C° 0.1 mm 3 mps 654 mmHg 42%
    18:00 +34°C° 0.2 mm 3 mps 654 mmHg 47%
    19:00 +31°C° 0.2 mm 2 mps 654 mmHg 52%
    20:00 +30°C° 0.2 mm 2 mps 654 mmHg 57%
    21:00 +29°C° 1 mm 2 mps 654 mmHg 60%
    22:00 +29°C° 1 mm 1 mps 654 mmHg 62%
    23:00 +28°C° 1 mm 1 mps 654 mmHg 65%
    Show more